Perry, IA

2:06 AM CDT on March 24, 2017 (GMT -0500)
Perry Municipal

Weather History for KPRO - May, 2014

Change the Weather History Date:

Friday, May 23, 2014

  Actual Average Record
Temperature  
Mean Temperature 66 °F -  
Max Temperature 80 °F 73 °F 93 °F (2012)
Min Temperature 53 °F 51 °F 32 °F (1963)
Cooling Degree Days 2    
Growing Degree Days 16 (Base 50)    
Moisture  
Dew Point 44 °F    
Average Humidity 46    
Maximum Humidity 76    
Minimum Humidity 22    
Precipitation  
Precipitation 0.00 in - - ()
Sea Level Pressure  
Sea Level Pressure 30.16 in    
Wind  
Wind Speed 4 mph (East)    
Max Wind Speed 13 mph    
Max Gust Speed -    
Visibility 10 miles    
Events      
Averages and records for this station are not official NWS values.
T = Trace of Precipitation, MM = Missing Value Source: NWS Daily Summary

Daily Weather History Graph

Daily Weather History Graph

Search for Another Location

Airport or City:

Trip Planner

Search our weather history database for the weather conditions in past years. The results will help you decide how hot, cold, wet, or windy it might be!

Date:

Astronomy

May. 23, 2014 Rise Set
Actual Time 5:49 AM CDT 8:37 PM CDT
Civil Twilight 5:16 AM CDT 9:10 PM CDT
Nautical Twilight 4:35 AM CDT 9:51 PM CDT
Astronomical Twilight 3:48 AM CDT 10:39 PM CDT
Moon 2:49 AM CDT (5/23) 3:26 PM CDT (5/23)
Length of Visible Light 15h 53m
Length of Day
14h 48m
Waning Crescent, 27% of the Moon is Illuminated
May 23
Waning Crescent
May 28
New
Jun 5
First Quarter
Jun 12
Full
Jun 19
Last Quarter

Hourly Weather History & Observations

Time (CDT) Temp. Dew Point Humidity Pressure Visibility Wind Dir Wind Speed Gust Speed Precip Events Conditions
12:15 AM 60.4 °F 48.7 °F 65% 30.17 in 10.0 mi Calm Calm - N/A   Clear
12:35 AM 59.5 °F 49.5 °F 69% 30.18 in 10.0 mi North 3.5 mph - N/A   Clear
12:55 AM 57.6 °F 50.0 °F 76% 30.18 in 10.0 mi NNE 3.5 mph - N/A   Clear
1:15 AM 57.9 °F 50.2 °F 75% 30.18 in 10.0 mi Calm Calm - N/A   Clear
1:35 AM 58.6 °F 50.0 °F 73% 30.17 in 10.0 mi Calm Calm - N/A   Clear
1:55 AM 58.6 °F 49.5 °F 72% 30.17 in 10.0 mi NE 4.6 mph - N/A   Clear
2:15 AM 60.8 °F 48.6 °F 64% 30.17 in 10.0 mi NE 3.5 mph - N/A   Clear
2:35 AM 57.4 °F 48.7 °F 73% 30.17 in 10.0 mi NNE 3.5 mph - N/A   Clear
2:55 AM 57.9 °F 45.7 °F 64% 30.17 in 10.0 mi NE 3.5 mph - N/A   Clear
3:15 AM 57.0 °F 46.9 °F 69% 30.17 in 10.0 mi NNE 3.5 mph - N/A   Clear
3:35 AM 55.8 °F 45.7 °F 69% 30.16 in 10.0 mi NE 3.5 mph - N/A   Clear
3:55 AM 55.0 °F 45.7 °F 71% 30.17 in 10.0 mi NE 4.6 mph - N/A   Clear
4:15 AM 55.0 °F 45.3 °F 70% 30.17 in 10.0 mi ENE 3.5 mph - N/A   Clear
4:35 AM 54.7 °F 45.0 °F 70% 30.17 in 10.0 mi ENE 3.5 mph - N/A   Clear
4:55 AM 53.8 °F 44.6 °F 71% 30.17 in 10.0 mi ENE 4.6 mph - N/A   Clear
5:15 AM 54.9 °F 44.2 °F 67% 30.17 in 10.0 mi ENE 5.8 mph - N/A   Clear
5:35 AM 54.3 °F 44.2 °F 69% 30.18 in 10.0 mi ENE 4.6 mph - N/A   Clear
5:55 AM 53.8 °F 44.2 °F 70% 30.18 in 10.0 mi East 3.5 mph - N/A   Clear
6:15 AM 53.8 °F 44.6 °F 71% 30.19 in 10.0 mi ENE 3.5 mph - N/A   Clear
6:35 AM 54.9 °F 45.0 °F 69% 30.19 in 10.0 mi Calm Calm - N/A   Clear
6:55 AM 56.3 °F 45.5 °F 67% 30.19 in 10.0 mi East 3.5 mph - N/A   Clear
7:15 AM 58.1 °F 46.4 °F 65% 30.20 in 10.0 mi East 3.5 mph - N/A   Clear
7:35 AM 59.9 °F 46.0 °F 60% 30.20 in 10.0 mi ESE 5.8 mph - N/A   Clear
7:55 AM 61.5 °F 46.2 °F 57% 30.21 in 10.0 mi ESE 9.2 mph - N/A   Clear
8:15 AM 63.0 °F 46.4 °F 55% 30.21 in 10.0 mi ESE 8.1 mph - N/A   Clear
8:35 AM 63.5 °F 46.6 °F 54% 30.21 in 10.0 mi ESE 6.9 mph - N/A   Clear
8:55 AM 66.4 °F 45.9 °F 48% 30.22 in 10.0 mi ESE 10.4 mph - N/A   Clear
9:15 AM 67.3 °F 45.7 °F 46% 30.22 in 10.0 mi ESE 11.5 mph - N/A   Clear
9:35 AM 68.2 °F 45.3 °F 44% 30.22 in 10.0 mi ESE 11.5 mph - N/A   Clear
9:55 AM 69.1 °F 45.7 °F 43% 30.22 in 10.0 mi East 12.7 mph - N/A   Clear
10:15 AM 70.3 °F 44.8 °F 40% 30.22 in 10.0 mi ESE 9.2 mph - N/A   Clear
10:35 AM 70.9 °F 44.1 °F 38% 30.22 in 10.0 mi East 6.9 mph - N/A   Clear
10:55 AM 71.8 °F 44.6 °F 38% 30.21 in 10.0 mi East 9.2 mph - N/A   Clear
11:35 AM 73.0 °F 41.7 °F 32% 30.21 in 10.0 mi SE 4.6 mph - N/A   Clear
11:55 AM 73.9 °F 41.7 °F 31% 30.21 in 10.0 mi SE 3.5 mph - N/A   Clear
12:15 PM 74.5 °F 41.5 °F 31% 30.21 in 10.0 mi ESE 4.6 mph - N/A   Clear
12:35 PM 75.2 °F 41.0 °F 29% 30.20 in 10.0 mi SSE 3.5 mph - N/A   Clear
12:55 PM 75.4 °F 40.6 °F 29% 30.19 in 10.0 mi Calm Calm - N/A   Clear
1:15 PM 75.9 °F 41.0 °F 29% 30.18 in 10.0 mi North 3.5 mph - N/A   Clear
1:55 PM 76.8 °F 40.3 °F 27% 30.18 in 10.0 mi Calm Calm - N/A   Clear
2:15 PM 77.9 °F 39.7 °F 25% 30.17 in 10.0 mi ENE 8.1 mph - N/A   Clear
2:35 PM 78.1 °F 38.1 °F 24% 30.16 in 10.0 mi Calm Calm - N/A   Clear
2:55 PM 78.8 °F 37.8 °F 23% 30.16 in 10.0 mi East 5.8 mph - N/A   Clear
3:15 PM 79.7 °F 37.9 °F 22% 30.16 in 10.0 mi East 9.2 mph - N/A   Clear
3:35 PM 79.5 °F 39.0 °F 23% 30.15 in 10.0 mi ENE 5.8 mph - N/A   Clear
3:55 PM 79.9 °F 37.4 °F 22% 30.15 in 10.0 mi ESE 3.5 mph - N/A   Clear
4:15 PM 80.1 °F 38.7 °F 23% 30.15 in 10.0 mi SE 5.8 mph - N/A   Clear
4:35 PM 79.7 °F 38.7 °F 23% 30.14 in 10.0 mi ESE 3.5 mph - N/A   Clear
4:55 PM 79.2 °F 38.7 °F 23% 30.13 in 10.0 mi ESE 5.8 mph - N/A   Clear
5:15 PM 79.7 °F 40.1 °F 24% 30.13 in 10.0 mi East 9.2 mph - N/A   Clear
5:35 PM 79.3 °F 39.9 °F 24% 30.12 in 10.0 mi East 6.9 mph - N/A   Clear
5:55 PM 79.3 °F 39.0 °F 24% 30.11 in 10.0 mi East 4.6 mph - N/A   Clear
6:15 PM 78.6 °F 40.3 °F 25% 30.11 in 10.0 mi ESE 9.2 mph - N/A   Clear
6:35 PM 78.6 °F 41.2 °F 26% 30.11 in 10.0 mi East 5.8 mph - N/A   Clear
6:55 PM 77.9 °F 39.7 °F 25% 30.11 in 10.0 mi ESE 6.9 mph - N/A   Clear
7:15 PM 76.8 °F 40.8 °F 27% 30.11 in 10.0 mi East 8.1 mph - N/A   Clear
7:35 PM 76.1 °F 40.8 °F 28% 30.11 in 10.0 mi ESE 9.2 mph - N/A   Clear
7:55 PM 75.0 °F 41.0 °F 29% 30.11 in 10.0 mi ESE 6.9 mph - N/A   Clear
8:15 PM 72.5 °F 42.4 °F 34% 30.11 in 10.0 mi East 5.8 mph - N/A   Clear
8:35 PM 70.7 °F 42.8 °F 36% 30.11 in 10.0 mi ESE 5.8 mph - N/A   Clear
8:55 PM 69.8 °F 41.9 °F 36% 30.11 in 10.0 mi ESE 5.8 mph - N/A   Clear
9:15 PM 68.2 °F 43.3 °F 41% 30.11 in 10.0 mi ESE 3.5 mph - N/A   Clear
9:35 PM 67.8 °F 41.9 °F 39% 30.13 in 10.0 mi SSE 5.8 mph - N/A   Clear
9:55 PM 67.3 °F 42.3 °F 40% 30.13 in 10.0 mi SSE 5.8 mph - N/A   Clear
10:15 PM 66.4 °F 43.9 °F 44% 30.13 in 10.0 mi SSE 5.8 mph - N/A   Clear
10:35 PM 64.9 °F 44.1 °F 47% 30.13 in 10.0 mi SSE 4.6 mph - N/A   Clear
10:55 PM 64.8 °F 43.0 °F 45% 30.13 in 10.0 mi SSE 4.6 mph - N/A   Clear
11:15 PM 63.0 °F 43.2 °F 48% 30.13 in 10.0 mi SSE 4.6 mph - N/A   Clear
11:35 PM 62.6 °F 47.1 °F 57% 30.14 in 10.0 mi Calm Calm - N/A   Clear
11:55 PM 63.7 °F 45.7 °F 52% 30.14 in 10.0 mi ESE 3.5 mph - N/A   Clear